TimeEDT,TemperatureF,Dew PointF,Humidity,Sea Level PressureIn,VisibilityMPH,Wind Direction,Wind SpeedMPH,Gust SpeedMPH,PrecipitationIn,Events,Conditions,WindDirDegrees,DateUTC
12:56 AM,57.2,55.4,94,30.05,8.0,NE,10.4,17.3,N/A,,Overcast,40,2013-05-05 04:56:00
12:58 AM,57.9,55.0,90,30.06,8.0,NE,10.4,17.3,N/A,,Overcast,40,2013-05-05 04:58:00
1:41 AM,57.2,55.4,94,30.03,4.0,NNE,11.5,-,0.00,Rain,Light Rain,30,2013-05-05 05:41:00
1:58 AM,57.0,55.0,93,30.03,5.0,NNE,9.2,-,0.00,Rain,Light Rain,30,2013-05-05 05:58:00
2:11 AM,57.2,55.4,94,30.02,8.0,NNE,9.2,17.3,0.00,,Overcast,30,2013-05-05 06:11:00
2:53 AM,57.2,55.4,94,30.01,2.5,NNE,9.2,-,0.03,Rain,Heavy Rain,20,2013-05-05 06:53:00
2:58 AM,57.9,55.9,93,30.01,3.0,NNE,10.4,-,0.03,Rain,Light Rain,20,2013-05-05 06:58:00
3:58 AM,57.9,57.0,97,30.00,7.0,NNE,10.4,-,0.01,,Overcast,30,2013-05-05 07:58:00
4:58 AM,57.9,57.0,97,29.99,7.0,NE,11.5,18.4,0.00,,Overcast,40,2013-05-05 08:58:00
5:58 AM,59.0,57.0,93,30.00,7.0,NNE,11.5,-,N/A,,Overcast,30,2013-05-05 09:58:00
6:58 AM,59.0,57.0,93,30.01,6.0,NE,8.1,18.4,N/A,,Overcast,40,2013-05-05 10:58:00
7:58 AM,60.1,57.9,93,30.02,6.0,NNE,8.1,17.3,N/A,,Overcast,30,2013-05-05 11:58:00
8:58 AM,63.0,59.0,87,30.03,8.0,NE,12.7,-,N/A,,Overcast,40,2013-05-05 12:58:00
9:36 AM,66.2,60.8,83,30.02,9.0,NE,10.4,20.7,N/A,,Mostly Cloudy,40,2013-05-05 13:36:00
9:55 AM,66.2,60.8,83,30.01,10.0,NE,11.5,19.6,N/A,,Scattered Clouds,50,2013-05-05 13:55:00
9:58 AM,66.0,61.0,84,30.02,10.0,ENE,8.1,17.3,N/A,,Scattered Clouds,60,2013-05-05 13:58:00
10:58 AM,66.9,60.1,79,30.03,9.0,ENE,9.2,20.7,0.00,Rain,Light Rain,70,2013-05-05 14:58:00
11:58 AM,64.9,62.1,90,30.03,7.0,ENE,11.5,18.4,0.02,Rain,Light Rain,60,2013-05-05 15:58:00
12:58 PM,70.0,63.0,78,30.02,10.0,ENE,11.5,18.4,0.00,,Scattered Clouds,60,2013-05-05 16:58:00
1:58 PM,70.0,62.1,76,30.01,10.0,ENE,11.5,-,N/A,,Mostly Cloudy,70,2013-05-05 17:58:00
2:58 PM,70.0,62.1,76,30.01,10.0,East,10.4,-,N/A,,Scattered Clouds,80,2013-05-05 18:58:00
3:58 PM,69.1,61.0,75,30.01,10.0,East,9.2,-,N/A,,Scattered Clouds,80,2013-05-05 19:58:00
4:58 PM,66.9,61.0,81,30.00,10.0,ENE,6.9,-,0.01,,Overcast,60,2013-05-05 20:58:00
5:58 PM,64.9,60.1,84,30.00,10.0,ENE,10.4,19.6,N/A,,Scattered Clouds,60,2013-05-05 21:58:00
6:58 PM,64.0,60.1,87,29.98,10.0,ENE,10.4,17.3,0.00,,Scattered Clouds,60,2013-05-05 22:58:00
7:58 PM,64.0,60.1,87,30.00,10.0,NE,9.2,-,N/A,,Mostly Cloudy,50,2013-05-05 23:58:00
8:58 PM,63.0,60.1,90,30.00,9.0,ENE,6.9,-,N/A,,Partly Cloudy,60,2013-05-06 00:58:00
9:58 PM,63.0,60.1,90,30.00,9.0,ENE,6.9,-,N/A,,Partly Cloudy,60,2013-05-06 01:58:00
10:58 PM,63.0,60.1,90,30.00,9.0,ENE,4.6,-,N/A,,Clear,60,2013-05-06 02:58:00
11:58 PM,61.0,59.0,93,30.00,9.0,NE,4.6,-,N/A,,Clear,40,2013-05-06 03:58:00